HAZ3472 ZSAM-ZGGG

Flight info

Callsign HAZ3472
Flight time 1h 7m
Altitude 36100
Route NUSPA9Z NUSPA W598 DABER W155 VETIB DCT NUVGA DCT XEBUL DCT MABAG DCT OLPAB OLPAB9
Aircraft B738/M-SDE2E3FGHIRWXY/LB1

Departure

Time 2026-05-06 07:06
Airport Xiamen Gaoqi International Airport (ZSAM)

Arrival

Time 2026-05-06 08:13
Airport Guangzhou Baiyun International Airport (ZGGG)
Time Latitude Longitude Altitude Speed Heading
2026-05-06 06:51 24.54817 118.13914 75 ft 0 kts 78°
2026-05-06 06:56 24.54814 118.13901 76 ft 2 kts 77°
2026-05-06 06:56 24.54811 118.13885 75 ft 2 kts 78°
2026-05-06 06:57 24.54809 118.13874 75 ft 2 kts 78°
2026-05-06 06:57 24.54804 118.13860 75 ft 2 kts 53°
2026-05-06 06:57 24.54793 118.13847 75 ft 2 kts 34°
2026-05-06 06:57 24.54780 118.13841 75 ft 2 kts 14°
2026-05-06 06:58 24.54765 118.13839 75 ft 2 kts 354°
2026-05-06 06:58 24.54751 118.13843 75 ft 2 kts 335°
2026-05-06 06:58 24.54744 118.13847 75 ft 1 kts 323°
2026-05-06 06:58 24.54739 118.13851 75 ft 0 kts 323°
2026-05-06 07:00 24.54746 118.13845 75 ft 6 kts 323°
2026-05-06 07:00 24.54795 118.13805 75 ft 8 kts 323°
2026-05-06 07:00 24.54841 118.13767 75 ft 9 kts 323°
2026-05-06 07:00 24.54862 118.13686 76 ft 15 kts 234°
2026-05-06 07:01 24.54778 118.13570 76 ft 23 kts 232°
2026-05-06 07:01 24.54664 118.13410 76 ft 26 kts 232°
2026-05-06 07:01 24.54551 118.13251 76 ft 25 kts 232°
2026-05-06 07:01 24.54442 118.13098 76 ft 24 kts 232°
2026-05-06 07:02 24.54329 118.12941 76 ft 27 kts 232°
2026-05-06 07:02 24.54207 118.12772 76 ft 27 kts 232°
2026-05-06 07:02 24.54089 118.12605 76 ft 26 kts 232°
2026-05-06 07:02 24.53974 118.12447 76 ft 25 kts 230°
2026-05-06 07:03 24.53867 118.12292 76 ft 24 kts 236°
2026-05-06 07:03 24.53762 118.12147 77 ft 23 kts 231°
2026-05-06 07:03 24.53661 118.12007 77 ft 22 kts 232°
2026-05-06 07:03 24.53565 118.11873 77 ft 21 kts 232°
2026-05-06 07:04 24.53475 118.11747 77 ft 15 kts 232°
2026-05-06 07:04 24.53477 118.11655 77 ft 13 kts 322°
2026-05-06 07:04 24.53549 118.11602 77 ft 11 kts 347°
2026-05-06 07:04 24.53608 118.11641 77 ft 10 kts 52°
2026-05-06 07:05 24.53674 118.11734 77 ft 27 kts 52°
2026-05-06 07:05 24.53947 118.12118 77 ft 96 kts 52°
2026-05-06 07:05 24.54488 118.12872 76 ft 151 kts 52°
2026-05-06 07:05 24.55196 118.13884 348 ft 170 kts 54°
2026-05-06 07:06 24.55884 118.14925 1023 ft 170 kts 53°
2026-05-06 07:06 24.56636 118.15923 1614 ft 175 kts 50°
2026-05-06 07:06 24.57446 118.16972 2038 ft 189 kts 51°
2026-05-06 07:06 24.58316 118.18175 2455 ft 207 kts 52°
2026-05-06 07:07 24.59189 118.19410 3146 ft 209 kts 52°
2026-05-06 07:07 24.60096 118.20684 3839 ft 212 kts 52°
2026-05-06 07:07 24.61013 118.21966 4458 ft 217 kts 51°
2026-05-06 07:07 24.61938 118.23297 5081 ft 223 kts 57°
2026-05-06 07:08 24.62448 118.24913 5681 ft 230 kts 87°
2026-05-06 07:08 24.62218 118.26649 6329 ft 233 kts 110°
2026-05-06 07:08 24.61509 118.28247 6974 ft 236 kts 126°
2026-05-06 07:08 24.60339 118.29471 7612 ft 235 kts 155°
2026-05-06 07:09 24.58809 118.29953 8307 ft 231 kts 179°
2026-05-06 07:09 24.57215 118.29897 9010 ft 229 kts 194°
2026-05-06 07:09 24.55770 118.29232 9673 ft 226 kts 221°
2026-05-06 07:09 24.54752 118.27944 10341 ft 226 kts 241°
2026-05-06 07:10 24.54166 118.26330 10996 ft 229 kts 254°
2026-05-06 07:10 24.53639 118.24692 11651 ft 232 kts 244°
2026-05-06 07:10 24.52761 118.23182 12317 ft 236 kts 234°
2026-05-06 07:10 24.51732 118.21778 12995 ft 239 kts 232°
2026-05-06 07:11 24.50678 118.20360 13577 ft 246 kts 233°
2026-05-06 07:11 24.49572 118.18824 13936 ft 265 kts 234°
2026-05-06 07:11 24.48409 118.17182 14430 ft 279 kts 233°
2026-05-06 07:11 24.47202 118.15477 14918 ft 293 kts 234°
2026-05-06 07:12 24.45912 118.13657 15412 ft 307 kts 234°
2026-05-06 07:12 24.44571 118.11769 15852 ft 322 kts 234°
2026-05-06 07:12 24.43154 118.09776 16275 ft 337 kts 234°
2026-05-06 07:12 24.41673 118.07692 16668 ft 352 kts 233°
2026-05-06 07:13 24.40135 118.05527 17048 ft 366 kts 234°
2026-05-06 07:13 24.38535 118.03275 17354 ft 381 kts 233°
2026-05-06 07:13 24.36878 118.00948 17677 ft 395 kts 233°
2026-05-06 07:13 24.35145 117.98515 18099 ft 405 kts 233°
2026-05-06 07:14 24.33423 117.96103 18773 ft 407 kts 233°
2026-05-06 07:14 24.31649 117.93617 19434 ft 410 kts 233°
2026-05-06 07:14 24.29898 117.91164 20038 ft 414 kts 233°
2026-05-06 07:14 24.28106 117.88654 20689 ft 416 kts 233°
2026-05-06 07:15 24.26302 117.86130 21243 ft 421 kts 233°
2026-05-06 07:15 24.24452 117.83633 21835 ft 424 kts 230°
2026-05-06 07:15 24.22457 117.81263 22406 ft 428 kts 226°
2026-05-06 07:15 24.20342 117.78945 22976 ft 431 kts 225°
2026-05-06 07:16 24.18153 117.76630 23523 ft 435 kts 225°
2026-05-06 07:16 24.15936 117.74312 24072 ft 439 kts 225°
2026-05-06 07:16 24.13734 117.72006 24607 ft 442 kts 225°
2026-05-06 07:16 24.11548 117.69636 25123 ft 445 kts 228°
2026-05-06 07:17 24.09523 117.67017 25627 ft 447 kts 236°
2026-05-06 07:17 24.07929 117.64098 26180 ft 447 kts 245°
2026-05-06 07:17 24.06812 117.60943 26714 ft 448 kts 255°
2026-05-06 07:17 24.06187 117.57574 27175 ft 450 kts 264°
2026-05-06 07:18 24.06087 117.54140 27662 ft 452 kts 273°
2026-05-06 07:18 24.06346 117.50751 28161 ft 454 kts 277°
2026-05-06 07:18 24.06771 117.47297 28644 ft 455 kts 279°
2026-05-06 07:18 24.07255 117.43871 29316 ft 453 kts 279°
2026-05-06 07:19 24.07738 117.40537 30264 ft 444 kts 279°
2026-05-06 07:19 24.08207 117.37222 31102 ft 438 kts 279°
2026-05-06 07:19 24.08655 117.33942 31760 ft 435 kts 279°
2026-05-06 07:19 24.09085 117.30680 32456 ft 431 kts 279°
2026-05-06 07:20 24.09495 117.27447 33086 ft 428 kts 279°
2026-05-06 07:20 24.09895 117.24210 33709 ft 425 kts 279°
2026-05-06 07:20 24.10282 117.21009 34303 ft 422 kts 279°
2026-05-06 07:20 24.10660 117.17832 34894 ft 419 kts 279°
2026-05-06 07:21 24.11032 117.14670 35422 ft 417 kts 278°
2026-05-06 07:21 24.11401 117.11498 35906 ft 416 kts 279°
2026-05-06 07:21 24.11763 117.08379 36070 ft 419 kts 279°
2026-05-06 07:22 24.12498 117.02027 36075 ft 417 kts 279°
2026-05-06 07:22 24.13222 116.95723 36076 ft 417 kts 279°
2026-05-06 07:23 24.13945 116.89383 36075 ft 418 kts 279°
2026-05-06 07:23 24.14581 116.83048 36072 ft 417 kts 276°
2026-05-06 07:24 24.14843 116.76652 36072 ft 418 kts 274°
2026-05-06 07:24 24.15023 116.70302 36073 ft 418 kts 274°
2026-05-06 07:25 24.15236 116.63922 36074 ft 418 kts 274°
2026-05-06 07:25 24.15477 116.57548 36076 ft 418 kts 274°
2026-05-06 07:26 24.15726 116.51156 36076 ft 418 kts 275°
2026-05-06 07:26 24.15973 116.44787 36077 ft 419 kts 275°
2026-05-06 07:27 24.16316 116.38435 36074 ft 418 kts 276°
2026-05-06 07:27 24.16818 116.32062 36072 ft 417 kts 277°
2026-05-06 07:28 24.17328 116.25737 36071 ft 418 kts 276°
2026-05-06 07:28 24.18063 116.16164 36065 ft 418 kts 276°
2026-05-06 07:29 24.18537 116.09820 36062 ft 418 kts 276°
2026-05-06 07:29 24.19007 116.03464 36054 ft 418 kts 276°
2026-05-06 07:30 24.19471 115.97091 36051 ft 418 kts 276°
2026-05-06 07:30 24.19935 115.90720 36048 ft 418 kts 276°
2026-05-06 07:31 24.20398 115.84345 36048 ft 420 kts 276°
2026-05-06 07:31 24.20857 115.77912 36044 ft 419 kts 276°
2026-05-06 07:32 24.21307 115.71555 36043 ft 420 kts 276°
2026-05-06 07:32 24.21758 115.65158 36041 ft 418 kts 276°
2026-05-06 07:33 24.22207 115.58781 36043 ft 420 kts 276°
2026-05-06 07:33 24.22654 115.52415 36041 ft 419 kts 276°
2026-05-06 07:34 24.23100 115.46043 36040 ft 419 kts 276°
2026-05-06 07:34 24.23578 115.39636 36045 ft 419 kts 277°
2026-05-06 07:35 24.24150 115.33276 36041 ft 420 kts 277°
2026-05-06 07:35 24.24731 115.26884 36035 ft 419 kts 277°
2026-05-06 07:36 24.25300 115.20521 36040 ft 420 kts 277°
2026-05-06 07:36 24.25863 115.14114 36037 ft 420 kts 277°
2026-05-06 07:37 24.26417 115.07707 36038 ft 420 kts 276°
2026-05-06 07:37 24.26966 115.01318 36041 ft 420 kts 277°
2026-05-06 07:38 24.27516 114.94930 36042 ft 421 kts 277°
2026-05-06 07:38 24.28064 114.88534 36044 ft 420 kts 277°
2026-05-06 07:39 24.28607 114.82140 36045 ft 420 kts 277°
2026-05-06 07:39 24.29166 114.75737 36048 ft 421 kts 277°
2026-05-06 07:40 24.29732 114.69352 36050 ft 420 kts 277°
2026-05-06 07:40 24.30290 114.62981 36050 ft 421 kts 277°
2026-05-06 07:41 24.30625 114.56515 36054 ft 422 kts 269°
2026-05-06 07:41 24.29380 114.50210 36057 ft 430 kts 252°
2026-05-06 07:42 24.26507 114.44402 36057 ft 436 kts 239°
2026-05-06 07:42 24.22676 114.39204 36062 ft 440 kts 233°
2026-05-06 07:43 24.18558 114.34142 36068 ft 439 kts 232°
2026-05-06 07:43 24.14485 114.29118 36073 ft 441 kts 233°
2026-05-06 07:44 24.10390 114.24097 36076 ft 441 kts 231°
2026-05-06 07:44 24.05853 114.19520 36081 ft 446 kts 224°
2026-05-06 07:45 24.00930 114.15324 36086 ft 447 kts 221°
2026-05-06 07:45 23.95898 114.11234 36088 ft 448 kts 221°
2026-05-06 07:46 23.90864 114.07172 36081 ft 448 kts 221°
2026-05-06 07:46 23.85832 114.03104 36077 ft 448 kts 221°
2026-05-06 07:47 23.80792 113.99024 36066 ft 449 kts 221°
2026-05-06 07:47 23.75892 113.94721 36012 ft 447 kts 227°
2026-05-06 07:48 23.73732 113.92259 35595 ft 443 kts 234°
2026-05-06 07:48 23.71889 113.89634 35008 ft 428 kts 240°
2026-05-06 07:48 23.70403 113.86917 34469 ft 410 kts 246°
2026-05-06 07:48 23.69264 113.84108 33910 ft 394 kts 253°
2026-05-06 07:49 23.68483 113.81300 33362 ft 380 kts 259°
2026-05-06 07:49 23.67958 113.78521 32817 ft 369 kts 262°
2026-05-06 07:49 23.67568 113.75796 32318 ft 365 kts 265°
2026-05-06 07:49 23.67373 113.73030 31785 ft 363 kts 270°
2026-05-06 07:50 23.67450 113.70265 31263 ft 361 kts 276°
2026-05-06 07:50 23.67762 113.67558 30741 ft 359 kts 279°
2026-05-06 07:50 23.67974 113.64844 30209 ft 358 kts 266°
2026-05-06 07:50 23.67392 113.62203 29689 ft 359 kts 248°
2026-05-06 07:51 23.66002 113.59964 29179 ft 364 kts 228°
2026-05-06 07:51 23.63920 113.58351 28665 ft 370 kts 207°
2026-05-06 07:51 23.61466 113.57506 28179 ft 373 kts 196°
2026-05-06 07:51 23.58862 113.57019 27674 ft 373 kts 192°
2026-05-06 07:52 23.56311 113.56651 27180 ft 372 kts 191°
2026-05-06 07:52 23.53699 113.56303 26676 ft 371 kts 191°
2026-05-06 07:52 23.51152 113.55967 26183 ft 369 kts 191°
2026-05-06 07:52 23.48593 113.55627 25686 ft 368 kts 191°
2026-05-06 07:53 23.46056 113.55286 25193 ft 366 kts 191°
2026-05-06 07:53 23.43527 113.54940 24699 ft 365 kts 191°
2026-05-06 07:53 23.40986 113.54588 24201 ft 363 kts 191°
2026-05-06 07:53 23.38482 113.54236 23709 ft 361 kts 191°
2026-05-06 07:54 23.35975 113.54024 23214 ft 363 kts 180°
2026-05-06 07:54 23.33496 113.54614 22726 ft 367 kts 160°
2026-05-06 07:54 23.31312 113.56126 22237 ft 371 kts 139°
2026-05-06 07:54 23.29756 113.58333 21759 ft 374 kts 118°
2026-05-06 07:55 23.28982 113.61011 21281 ft 374 kts 97°
2026-05-06 07:55 23.29108 113.63825 20797 ft 373 kts 76°
2026-05-06 07:55 23.30099 113.66421 20098 ft 370 kts 54°
2026-05-06 07:55 23.31829 113.68444 19380 ft 362 kts 33°
2026-05-06 07:56 23.34042 113.69718 18663 ft 354 kts 18°
2026-05-06 07:56 23.36353 113.70564 17954 ft 349 kts 14°
2026-05-06 07:56 23.38668 113.71293 17246 ft 345 kts 13°
2026-05-06 07:56 23.40984 113.71993 16543 ft 342 kts 13°
2026-05-06 07:57 23.43292 113.72687 15825 ft 342 kts 13°
2026-05-06 07:57 23.45560 113.73372 15128 ft 338 kts 12°
2026-05-06 07:57 23.47827 113.74060 14418 ft 334 kts 13°
2026-05-06 07:57 23.50048 113.74738 13716 ft 330 kts 12°
2026-05-06 07:58 23.52263 113.75419 13009 ft 327 kts 13°
2026-05-06 07:58 23.54452 113.76097 12302 ft 324 kts 13°
2026-05-06 07:58 23.56626 113.76769 11590 ft 321 kts 13°
2026-05-06 07:58 23.58778 113.77428 10882 ft 318 kts 13°
2026-05-06 07:59 23.60917 113.77784 10466 ft 299 kts 350°
2026-05-06 07:59 23.62764 113.77091 10433 ft 265 kts 321°
2026-05-06 07:59 23.64024 113.75794 10428 ft 239 kts 305°
2026-05-06 07:59 23.64941 113.74302 10432 ft 232 kts 295°
2026-05-06 08:00 23.65571 113.72694 10442 ft 231 kts 286°
2026-05-06 08:00 23.66041 113.71003 10455 ft 231 kts 284°
2026-05-06 08:00 23.66486 113.69304 10286 ft 234 kts 284°
2026-05-06 08:00 23.66942 113.67577 9716 ft 240 kts 284°
2026-05-06 08:01 23.67415 113.65808 9089 ft 246 kts 284°
2026-05-06 08:01 23.67899 113.64016 8569 ft 246 kts 284°
2026-05-06 08:01 23.68379 113.62238 8067 ft 246 kts 284°
2026-05-06 08:01 23.68860 113.60452 7663 ft 241 kts 284°
2026-05-06 08:02 23.69321 113.58746 7544 ft 227 kts 284°
2026-05-06 08:02 23.69763 113.57104 7556 ft 223 kts 284°
2026-05-06 08:02 23.70196 113.55489 7589 ft 222 kts 284°
2026-05-06 08:02 23.70632 113.53863 7569 ft 214 kts 284°
2026-05-06 08:03 23.71036 113.52365 7552 ft 196 kts 284°
2026-05-06 08:03 23.71385 113.50991 7539 ft 180 kts 282°
2026-05-06 08:03 23.71684 113.49674 7455 ft 180 kts 281°
2026-05-06 08:03 23.71985 113.48341 7274 ft 179 kts 281°
2026-05-06 08:04 23.72295 113.46991 7105 ft 189 kts 281°
2026-05-06 08:04 23.72620 113.45583 6879 ft 191 kts 281°
2026-05-06 08:04 23.72940 113.44192 6690 ft 183 kts 279°
2026-05-06 08:04 23.73050 113.42847 6502 ft 175 kts 259°
2026-05-06 08:05 23.72630 113.41616 6332 ft 172 kts 237°
2026-05-06 08:05 23.71884 113.40596 6171 ft 172 kts 223°
2026-05-06 08:05 23.70869 113.39919 5979 ft 173 kts 199°
2026-05-06 08:05 23.69684 113.39611 5791 ft 173 kts 194°
2026-05-06 08:06 23.68518 113.39315 5606 ft 172 kts 197°
2026-05-06 08:06 23.67353 113.38953 5383 ft 174 kts 197°
2026-05-06 08:06 23.66178 113.38606 5140 ft 172 kts 196°
2026-05-06 08:06 23.65016 113.38290 4916 ft 172 kts 195°
2026-05-06 08:07 23.63836 113.37972 4684 ft 172 kts 195°
2026-05-06 08:07 23.62664 113.37654 4451 ft 171 kts 194°
2026-05-06 08:07 23.61514 113.37346 4222 ft 171 kts 194°
2026-05-06 08:07 23.60336 113.37034 3989 ft 171 kts 194°
2026-05-06 08:08 23.59170 113.36725 3756 ft 171 kts 193°
2026-05-06 08:08 23.58006 113.36413 3529 ft 171 kts 193°
2026-05-06 08:08 23.56859 113.36099 3297 ft 170 kts 193°
2026-05-06 08:08 23.55693 113.35782 3068 ft 170 kts 193°
2026-05-06 08:09 23.54572 113.35501 2859 ft 167 kts 191°
2026-05-06 08:09 23.53436 113.35215 2639 ft 158 kts 192°
2026-05-06 08:09 23.52388 113.34927 2396 ft 151 kts 193°
2026-05-06 08:09 23.51380 113.34644 2225 ft 150 kts 192°
2026-05-06 08:10 23.50352 113.34367 2018 ft 150 kts 192°
2026-05-06 08:10 23.49342 113.34097 1829 ft 150 kts 192°
2026-05-06 08:10 23.48316 113.33822 1625 ft 150 kts 192°
2026-05-06 08:10 23.47310 113.33551 1436 ft 148 kts 192°
2026-05-06 08:11 23.46309 113.33282 1245 ft 150 kts 192°
2026-05-06 08:11 23.45293 113.33009 1044 ft 148 kts 192°
2026-05-06 08:11 23.44297 113.32742 855 ft 150 kts 192°
2026-05-06 08:11 23.43284 113.32470 652 ft 150 kts 192°
2026-05-06 08:12 23.42270 113.32193 494 ft 149 kts 193°
2026-05-06 08:12 23.41250 113.31928 323 ft 149 kts 192°
2026-05-06 08:12 23.40240 113.31659 91 ft 150 kts 192°
2026-05-06 08:12 23.39307 113.31404 52 ft 118 kts 194°
2026-05-06 08:13 23.38742 113.31255 52 ft 49 kts 193°
2026-05-06 08:13 23.38518 113.31194 52 ft 29 kts 192°
2026-05-06 08:13 23.38326 113.31146 52 ft 27 kts 187°
2026-05-06 08:13 23.38141 113.31159 52 ft 26 kts 167°
2026-05-06 08:14 23.37969 113.31207 52 ft 24 kts 167°
2026-05-06 08:14 23.37801 113.31201 52 ft 23 kts 193°
2026-05-06 08:14 23.37650 113.31161 52 ft 15 kts 194°
2026-05-06 08:14 23.37606 113.31180 52 ft 6 kts 101°
2026-05-06 08:15 23.37590 113.31258 52 ft 14 kts 105°
2026-05-06 08:15 23.37541 113.31338 52 ft 11 kts 104°
2026-05-06 08:15 23.37535 113.31367 52 ft 0 kts 103°